Location: Domont
(49.0278°N, 2.3264°E)
Time: 07:12:26
(UTC+00:00)

Max Valier Satellite - Visible Passes

Search period start: 28 June 2022 00:00
Search period end: 08 July 2022 00:00
Orbit: 478 x 490 km, 97.2° (Epoch: 28 June)

Date Brightness Start Highest point End Pass type
(mag) Time Alt. Az. Time Alt. Az. Time Alt. Az.
28 Jun ? 20:43:29 10° WSW 20:45:21 14° W 20:47:14 10° WNW visible
02 Jul ? 20:38:38 10° SW 20:40:48 15° W 20:42:59 10° NW visible
06 Jul ? 20:33:42 10° SW 20:36:06 17° W 20:38:31 10° NW visible
